• In Deutschland
  • Länderverzeichnis
  • Für 7 Tage
  • Wassertemperatur
  • Satellitenkarten
  • Wetterkarte
  • Widgets
  • user-avatar
    Anmelden

    Stündliche Wetter Shkoder

    Heute, 26 Juli, Mittwoch

    Zeit Temperatur Niederschläge Wind Luftdruck Luftfeuchtigkeit
    00:00 +20°C° 0,9 mm 2 m/S 732 mmHg 82%
    01:00 +20°C° 0,9 mm 2 m/S 732 mmHg 83%
    02:00 +20°C° 0,3 mm 2 m/S 732 mmHg 84%
    03:00 +19°C° 0,3 mm 2 m/S 732 mmHg 85%
    04:00 +19°C° 0,3 mm 2 m/S 732 mmHg 86%
    05:00 +20°C° 0,4 mm 2 m/S 732 mmHg 82%
    06:00 +23°C° 0,4 mm 2 m/S 732 mmHg 78%
    07:00 +24°C° 0 mm 2 m/S 732 mmHg 73%
    08:00 +25°C° 0,6 mm 2 m/S 732 mmHg 70%
    09:00 +25°C° 0,6 mm 3 m/S 732 mmHg 68%
    10:00 +26°C° 0,6 mm 3 m/S 732 mmHg 65%
    11:00 +27°C° 0,6 mm 3 m/S 732 mmHg 64%
    12:00 +27°C° 0,6 mm 3 m/S 732 mmHg 63%
    13:00 +27°C° 0,6 mm 3 m/S 732 mmHg 63%
    14:00 +27°C° 0,4 mm 3 m/S 732 mmHg 62%
    15:00 +27°C° 0,4 mm 3 m/S 732 mmHg 61%
    16:00 +27°C° 0,4 mm 3 m/S 732 mmHg 61%
    17:00 +25°C° 0,2 mm 3 m/S 732 mmHg 67%
    18:00 +24°C° 0,2 mm 2 m/S 733 mmHg 73%
    19:00 +21°C° 0,2 mm 2 m/S 733 mmHg 79%
    20:00 +20°C° 0,2 mm 2 m/S 733 mmHg 82%
    21:00 +20°C° 0,2 mm 1 m/S 733 mmHg 85%
    22:00 +20°C° 0,2 mm 1 m/S 734 mmHg 88%
    23:00 +19°C° 0,1 mm 1 m/S 734 mmHg 88%

    Morgen, 27 Juli, Donnerstag

    Zeit Temperatur Niederschläge Wind Luftdruck Luftfeuchtigkeit
    00:00 +19°C° 0,1 mm 1 m/S 734 mmHg 87%
    01:00 +19°C° 0,1 mm 1 m/S 734 mmHg 87%
    02:00 +18°C° 0,1 mm 1 m/S 734 mmHg 87%
    03:00 +18°C° 0,1 mm 1 m/S 734 mmHg 86%
    04:00 +17°C° 0,1 mm 2 m/S 734 mmHg 86%
    05:00 +20°C° 0 mm 1 m/S 734 mmHg 80%
    06:00 +21°C° 0 mm 1 m/S 734 mmHg 73%
    07:00 +23°C° 0 mm 1 m/S 735 mmHg 67%
    08:00 +25°C° 0,1 mm 1 m/S 735 mmHg 61%
    09:00 +26°C° 0,1 mm 1 m/S 735 mmHg 54%
    10:00 +28°C° 0,1 mm 2 m/S 735 mmHg 48%
    11:00 +28°C° 0,4 mm 2 m/S 735 mmHg 48%
    12:00 +28°C° 0,4 mm 2 m/S 735 mmHg 48%
    13:00 +28°C° 0,4 mm 3 m/S 735 mmHg 48%
    14:00 +28°C° 0,5 mm 3 m/S 735 mmHg 50%
    15:00 +28°C° 0,5 mm 3 m/S 735 mmHg 52%
    16:00 +27°C° 0,5 mm 3 m/S 735 mmHg 54%
    17:00 +26°C° 0,5 mm 2 m/S 735 mmHg 60%
    18:00 +24°C° 0,5 mm 2 m/S 735 mmHg 65%
    19:00 +21°C° 0,5 mm 2 m/S 736 mmHg 71%
    20:00 +21°C° 0 mm 2 m/S 736 mmHg 73%
    21:00 +20°C° 0 mm 2 m/S 737 mmHg 74%
    22:00 +19°C° 0 mm 2 m/S 738 mmHg 76%
    23:00 +19°C° 0 mm 2 m/S 738 mmHg 76%

    übermorgen, 28 Juli, Freitag

    Zeit Temperatur Niederschläge Wind Luftdruck Luftfeuchtigkeit
    00:00 +18°C° 0 mm 2 m/S 738 mmHg 75%
    01:00 +18°C° 0 mm 2 m/S 738 mmHg 74%
    02:00 +18°C° 0 mm 2 m/S 738 mmHg 74%
    03:00 +17°C° 0 mm 2 m/S 738 mmHg 73%
    04:00 +17°C° 0 mm 2 m/S 738 mmHg 72%
    05:00 +19°C° 0 mm 2 m/S 738 mmHg 66%
    06:00 +21°C° 0 mm 2 m/S 739 mmHg 60%
    07:00 +24°C° 0 mm 2 m/S 739 mmHg 55%
    08:00 +26°C° 0 mm 1 m/S 739 mmHg 49%
    09:00 +28°C° 0 mm 1 m/S 739 mmHg 43%
    10:00 +30°C° 0 mm 1 m/S 739 mmHg 38%
    11:00 +31°C° 0 mm 2 m/S 739 mmHg 37%
    12:00 +31°C° 0 mm 2 m/S 739 mmHg 36%
    13:00 +33°C° 0 mm 3 m/S 739 mmHg 35%
    14:00 +33°C° 0 mm 3 m/S 739 mmHg 37%
    15:00 +31°C° 0 mm 3 m/S 739 mmHg 40%
    16:00 +31°C° 0 mm 3 m/S 739 mmHg 42%
    17:00 +29°C° 0 mm 2 m/S 739 mmHg 50%
    18:00 +27°C° 0 mm 1 m/S 739 mmHg 58%
    19:00 +24°C° 0 mm 1 m/S 740 mmHg 66%
    20:00 +24°C° 0 mm 1 m/S 740 mmHg 66%
    21:00 +23°C° 0 mm 1 m/S 741 mmHg 67%
    22:00 +23°C° 0 mm 1 m/S 741 mmHg 67%
    23:00 +23°C° 0 mm 1 m/S 741 mmHg 66%

    29 Juli, Samstag

    Zeit Temperatur Niederschläge Wind Luftdruck Luftfeuchtigkeit
    00:00 +22°C° 0 mm 1 m/S 741 mmHg 65%
    01:00 +22°C° 0 mm 1 m/S 742 mmHg 65%
    02:00 +22°C° 0 mm 1 m/S 742 mmHg 64%
    03:00 +21°C° 0 mm 2 m/S 742 mmHg 64%
    04:00 +21°C° 0 mm 2 m/S 742 mmHg 64%
    05:00 +23°C° 0 mm 2 m/S 742 mmHg 60%
    06:00 +25°C° 0 mm 1 m/S 742 mmHg 56%
    07:00 +27°C° 0 mm 1 m/S 742 mmHg 51%
    08:00 +29°C° 0 mm 1 m/S 742 mmHg 46%
    09:00 +31°C° 0 mm 1 m/S 742 mmHg 41%
    10:00 +33°C° 0 mm 1 m/S 743 mmHg 36%
    11:00 +35°C° 0 mm 2 m/S 742 mmHg 35%
    12:00 +36°C° 0 mm 2 m/S 742 mmHg 33%
    13:00 +37°C° 0 mm 3 m/S 742 mmHg 32%
    14:00 +36°C° 0 mm 3 m/S 742 mmHg 34%
    15:00 +36°C° 0 mm 3 m/S 742 mmHg 35%
    16:00 +35°C° 0 mm 3 m/S 741 mmHg 37%
    17:00 +32°C° 0 mm 2 m/S 741 mmHg 43%
    18:00 +30°C° 0 mm 1 m/S 741 mmHg 49%
    19:00 +27°C° 0 mm 1 m/S 742 mmHg 55%
    20:00 +27°C° 0 mm 1 m/S 742 mmHg 55%
    21:00 +26°C° 0 mm 1 m/S 742 mmHg 56%
    22:00 +25°C° 0 mm 1 m/S 742 mmHg 57%
    23:00 +25°C° 0 mm 1 m/S 742 mmHg 57%

    30 Juli, Sonntag

    Zeit Temperatur Niederschläge Wind Luftdruck Luftfeuchtigkeit
    00:00 +25°C° 0 mm 1 m/S 742 mmHg 56%
    01:00 +25°C° 0 mm 1 m/S 742 mmHg 56%
    02:00 +24°C° 0 mm 1 m/S 742 mmHg 56%
    03:00 +24°C° 0 mm 1 m/S 742 mmHg 55%
    04:00 +24°C° 0 mm 1 m/S 742 mmHg 55%
    05:00 +26°C° 0 mm 1 m/S 742 mmHg 52%
    06:00 +28°C° 0 mm 1 m/S 742 mmHg 49%
    07:00 +30°C° 0 mm 1 m/S 742 mmHg 45%
    08:00 +31°C° 0 mm 1 m/S 742 mmHg 41%
    09:00 +33°C° 0 mm 1 m/S 742 mmHg 37%
    10:00 +35°C° 0 mm 1 m/S 742 mmHg 33%
    11:00 +37°C° 0 mm 2 m/S 741 mmHg 32%
    12:00 +37°C° 0 mm 2 m/S 741 mmHg 31%
    13:00 +38°C° 0 mm 3 m/S 741 mmHg 30%
    14:00 +38°C° 0 mm 3 m/S 740 mmHg 31%
    15:00 +37°C° 0 mm 3 m/S 740 mmHg 33%
    16:00 +37°C° 0 mm 3 m/S 740 mmHg 34%
    17:00 +34°C° 0 mm 2 m/S 740 mmHg 39%
    18:00 +31°C° 0 mm 2 m/S 740 mmHg 44%
    19:00 +29°C° 0 mm 1 m/S 740 mmHg 49%
    20:00 +28°C° 0 mm 1 m/S 740 mmHg 50%
    21:00 +27°C° 0 mm 1 m/S 740 mmHg 51%
    22:00 +27°C° 0 mm 1 m/S 741 mmHg 52%
    23:00 +26°C° 0 mm 1 m/S 741 mmHg 53%

    31 Juli, Montag

    Zeit Temperatur Niederschläge Wind Luftdruck Luftfeuchtigkeit
    00:00 +26°C° 0 mm 1 m/S 741 mmHg 53%
    01:00 +26°C° 0 mm 1 m/S 740 mmHg 54%
    02:00 +25°C° 0 mm 1 m/S 740 mmHg 54%
    03:00 +25°C° 0 mm 2 m/S 740 mmHg 55%
    04:00 +25°C° 0 mm 2 m/S 740 mmHg 55%
    05:00 +27°C° 0 mm 2 m/S 741 mmHg 52%
    06:00 +29°C° 0 mm 2 m/S 741 mmHg 49%
    07:00 +30°C° 0 mm 2 m/S 741 mmHg 47%
    08:00 +32°C° 0 mm 2 m/S 741 mmHg 42%
    09:00 +36°C° 0 mm 2 m/S 741 mmHg 37%
    10:00 +38°C° 0 mm 2 m/S 741 mmHg 32%
    11:00 +38°C° 0 mm 2 m/S 740 mmHg 30%
    12:00 +39°C° 0 mm 3 m/S 740 mmHg 29%
    13:00 +40°C° 0 mm 3 m/S 740 mmHg 27%
    14:00 +39°C° 0 mm 3 m/S 739 mmHg 28%
    15:00 +39°C° 0 mm 3 m/S 739 mmHg 29%
    16:00 +40°C° 0 mm 4 m/S 739 mmHg 30%
    17:00 +36°C° 0 mm 3 m/S 739 mmHg 35%
    18:00 +34°C° 0 mm 2 m/S 739 mmHg 40%
    19:00 +30°C° 0 mm 2 m/S 740 mmHg 45%
    20:00 +29°C° 0 mm 2 m/S 740 mmHg 46%
    21:00 +28°C° 0 mm 2 m/S 740 mmHg 46%
    22:00 +28°C° 0 mm 2 m/S 741 mmHg 47%
    23:00 +27°C° 0 mm 2 m/S 741 mmHg 47%
    Mehr zeigen